x

Point Arguello, Ca (ptgc1) Weather Station

2:00 - Sun 25th Jun 2017 All times are PDT. -7 hours from GMT.

  • Wind
    36mph, 37mph gusts
  • Ar Temp 55°f
  • Sea Pressure 1012.5mb
  • Point Arguello, Ca
  • Point Arguello, Ca

More Historic Weather Station data

Upgrade to MSW Pro to gain access to the past 30 days of data for over 8000 Wavebouys and Weather Stations around the globe.

Join Pro

Comparision Forecast

View Surf forecast
   
Dom 06/25 2:00 36 37 mph 1012.5mb 55f
1:00 33 36 mph 1012.7mb 55f
12:00 32 34 mph 1012.9mb 56f
Sáb 06/24 11:00 33 36 mph 1013mb 56f
10:00 33 34 mph 1012.9mb 56f
9:00 32 36 mph 1012.7mb 57f
8:00 33 34 mph 1012.7mb 57f
7:00 32 34 mph 1012.7mb 57f
6:00 32 34 mph 1012.7mb 57f
5:00 33 34 mph 1012.8mb 58f
4:00 32 34 mph 1013.4mb 58f
3:00 30 32 mph 1013.8mb 58f
2:00 28 30 mph 1014.2mb 58f
1:00 25 26 mph 1014.5mb 56f
12:00 23 26 mph 1014.4mb 56f
11:00 26 28 mph 1014.1mb 56f
10:00 25 26 mph 1013.8mb 56f
9:00 26 29 mph 1013.5mb 56f
8:00 30 33 mph 1013mb 56f
7:00 33 36 mph 1012.5mb 56f
6:00 25 30 mph 1013.2mb 55f
5:00 32 33 mph 1012.3mb 55f
4:00 29 31 mph 1012.8mb 55f
3:00 20 22 mph 1013.7mb 55f
2:00 11 13 mph 1014.3mb 55f
1:00 18 20 mph 1013.8mb 55f
12:00 21 23 mph 1013.9mb 56f
Sex 06/23 11:00 34 37 mph 1012.4mb 55f
10:00 20 22 mph 1014.2mb 56f
9:00 20 22 mph 1013.7mb 56f
8:00 17 18 mph 1014.1mb 56f
7:00 16 17 mph 1014.1mb 56f
6:00 17 18 mph 1013.6mb 57f
5:00 11 13 mph 1014mb 57f
4:00 5 6 mph 1014.4mb 58f
3:00 9 10 mph 1014.6mb 57f
2:00 5 6 mph 1014.3mb 56f
1:00 5 10 mph 1014.7mb 57f
12:00 6 7 mph 1014.1mb 56f
11:00 3 6 mph 1013.9mb 57f
10:00 5 6 mph 1013.6mb 56f
9:00 5 5 mph 1013.7mb 56f
8:00 2 3 mph 1013.5mb 56f
7:00 1 2 mph 1013.1mb 56f
6:00 5 6 mph 1012.8mb 56f
5:00 3 7 mph 1012.4mb 56f
4:00 6 7 mph 1012.3mb 56f
3:00 5 8 mph 1012.1mb 56f
2:00 6 10 mph 1012.1mb 56f
1:00 6 8 mph 1012mb 56f
12:00 5 6 mph 1012.1mb 56f
Qui 06/22 11:00 6 8 mph 1011.8mb 56f
10:00 6 9 mph 1011.3mb 56f
9:00 9 13 mph 1010.8mb 56f
8:00 10 13 mph 1010.3mb 56f
7:00 10 15 mph 1009.9mb 57f
6:00 9 15 mph 1010mb 57f
5:00 10 17 mph 1009.9mb 56f
4:00 17 22 mph 1009.7mb 56f
3:00 13 21 mph 1009.9mb 58f
2:00 15 24 mph 1010mb 57f
1:00 22 26 mph 1009.9mb 56f
12:00 20 30 mph 1009.5mb 57f
11:00 13 24 mph 1009.3mb 56f
10:00 10 18 mph 1008.9mb 55f
9:00 15 17 mph 1008.9mb 54f
8:00 6 9 mph 1008.7mb 53f
7:00  -  1 mph 1008.3mb 53f
6:00 6 6 mph 1007.7mb 52f
5:00 6 7 mph 1007.4mb 52f
4:00 8 9 mph 1007.2mb 52f
3:00 10 11 mph 1007.1mb 53f
2:00 11 13 mph 1007.3mb 53f
1:00 13 14 mph 1007.4mb 53f
12:00 16 17 mph 1007.4mb 53f
Qua 06/21 11:00 21 22 mph 1007.2mb 53f
10:00 26 29 mph 1007mb 53f
9:00 29 30 mph 1006.5mb 54f
8:00 28 29 mph 1006.7mb 54f
7:00 24 25 mph 1007mb 55f
6:00 26 28 mph 1007.1mb 55f
5:00 26 29 mph 1007.7mb 55f
4:00 24 26 mph 1008.5mb 55f
3:00 25 26 mph 1009mb 55f
2:00 25 26 mph 1009.5mb 54f
1:00 25 28 mph 1009.8mb 54f
12:00 28 30 mph 1010.1mb 54f
11:00 29 30 mph 1010.5mb 54f